Location: Pl�tzky
(52.0521°N, 11.8020°E)
Time: 02:57:43
(UTC+00:00)

Cosmos 2344 - Pass Details

Date: 22 November 2019
Orbit: 1258 x 2984 km, 63.3° (Epoch: 11 December)

Event Time Altitude Azimuth Distance (km) Brightness Sun altitude
Rises 15:47:33 0° 236° (WSW) 4,215 8.8 -5.4°
Reaches altitude 10° 15:50:14 10° 239° (WSW) 3,238 7.6 -5.8°
Maximum altitude 15:57:43 70° 323° (NW) 1,414 3.9 -6.9°
Drops below altitude 10° 16:06:33 10° 48° (NE) 3,781 5.5 -8.1°
Enters shadow 16:07:29 - 49° (NE) 4,109 5.6 -8.2°
